www.pogodaiklimat.ru

Погода и климат >> Архив погоды >> Австралия >> Западная Австралия >> Трускотт


ПОГОДА в Трускотте

  • Прогноз погоды в Трускотте
  • Монитор погоды в Трускотте

АРХИВ ПОГОДЫ в Трускотте

Время (UTC), дата Ветер
(напр.,м/с)
 
Видим.   Явления Облачность Т
(С)
Тd
(С)
f
(%)
Тe
(С)
Тes
(С)
Комфортность P
(гПа)
Po
(гПа)
Тmin
(С)
Tmax
(С)
R
(мм)
R24
(мм)
S
(см)
22 12.09 СВ 1 н/о н/о +18.0 +13.5 75 +19 +19 1016.6 1010.7
01 13.09 В 4 н/о н/о +28.3 +1.7 18 +26 +26 жарко 1017.8 1011.9 +16.7
04 13.09 С 6 н/о н/о +28.9 +11.9 35 +30 +30 жарко 1015.9 1010.0
07 13.09 С 5 н/о н/о +27.8 +16.7 51 +31 +31 душно 1013.8 1008.0
10 13.09 С 3 н/о н/о +24.6 +17.8 66 +29 +29 душно 1015.1 1009.2
13 13.09 штиль 0 н/о н/о +21.6 +18.4 82 +26 +26 душно 1016.3 1010.4 +30.9
16 13.09 ЮЗ 4 н/о н/о +21.8 +19.0 84 +27 +27 душно 1015.4 1009.5
19 13.09 ЮЗ 4 н/о н/о +21.3 +17.3 78 +25 +25 комфорт 1014.3 1008.5
22 13.09 С 2 н/о н/о +17.9 +17.6 98 +18 +18 1016.4 1010.5
01 14.09 В 5 н/о н/о +28.7 +9.9 31 +29 +29 жарко 1017.1 1011.2 +17.3
04 14.09 С 7 н/о н/о +29.2 +16.4 46 +33 +33 очень
душно
1014.8 1008.9
07 14.09 С 6 н/о н/о +27.3 +18.9 60 +32 +32 очень
душно
1013.9 1008.1
10 14.09 С 3 н/о н/о +25.0 +19.4 71 +30 +30 душно 1015.1 1009.2
13 14.09 штиль 0 н/о н/о +22.2 +19.4 84 +28 +28 душно 1015.7 1009.8 +30.9
16 14.09 ЮЗ 2 н/о н/о +21.4 +20.6 95 +27 +27 душно 1014.7 1008.8
19 14.09 ЮЗ 3 н/о н/о +21.5 +20.3 93 +27 +27 душно 1013.9 1008.1
22 14.09 Ю 2 н/о н/о +19.4 +19.4 100 +23 +23 комфорт 1015.4 1009.5
01 15.09 С 3 н/о н/о +28.0 +16.9 51 +32 +32 душно 1016.6 1010.7 +18.4
04 15.09 С 5 н/о н/о +28.4 +15.3 45 +31 +31 душно 1014.6 1008.7
07 15.09 С 4 н/о н/о +27.7 +17.8 55 +32 +32 очень
душно
1012.6 1006.8
10 15.09 С 3 н/о н/о +24.7 +19.5 73 +30 +30 очень
душно
1014.1 1008.3
13 15.09 З 2 н/о н/о +23.2 +20.0 82 +30 +30 очень
душно
1015.1 1009.2 +30.0
16 15.09 ЮЗ 4 н/о н/о +22.6 +19.2 81 +29 +29 очень
душно
1013.6 1007.8
19 15.09 штиль 0 н/о н/о +19.6 +19.1 97 +22 +22 комфорт 1013.5 1007.7
22 15.09 штиль 0 н/о н/о +20.4 +20.4 100 +24 +24 комфорт 1015.3 1009.4
01 16.09 СЗ 2 н/о 1/1 1000 м
[]
+27.7 +18.7 58 +33 +44 очень
душно
1015.9 1010.0 +19.4
04 16.09 С 4 н/о н/о +29.0 +18.4 53 +34 +34 очень
душно
1014.1 1008.3
07 16.09 С 5 н/о н/о +27.4 +18.9 60 +33 +33 очень
душно
1011.8 1006.0
10 16.09 С 2 н/о н/о +24.9 +20.2 75 +31 +31 очень
душно
1013.0 1007.2
13 16.09 штиль 0 н/о н/о +22.1 +20.4 90 +28 +28 душно 1014.8 1008.9 +30.5
16 16.09 ЮЗ 2 н/о н/о +22.7 +21.2 91 +30 +30 очень
душно
1013.8 1008.0
19 16.09 ЮЗ 3 н/о н/о +22.0 +20.8 93 +28 +28 душно 1013.5 1007.7
22 16.09 С 1 н/о н/о +21.7 +19.4 87 +27 +27 душно 1015.1 1009.2
01 17.09 С 3 н/о н/о +28.1 +17.0 51 +32 +32 душно 1016.6 1010.7 +20.8
04 17.09 С 4 н/о н/о +29.2 +17.1 48 +33 +33 очень
душно
1014.4 1008.6
07 17.09 С 5 н/о н/о +28.3 +16.6 49 +32 +32 душно 1012.3 1006.5
10 17.09 СЗ 3 н/о н/о +24.9 +20.6 77 +31 +31 очень
душно
1014.1 1008.3
13 17.09 З 2 н/о н/о +23.2 +20.9 87 +31 +31 очень
душно
1016.5 1010.6 +30.9
16 17.09 СЗ 2 н/о н/о +22.4 +21.0 92 +29 +29 очень
душно
1015.2 1009.3
19 17.09 ЮЗ 1 н/о н/о +21.0 +20.8 99 +28 +28 очень
душно
1014.9 1009.0
22 17.09 З 2 н/о н/о +21.8 +21.8 100 +28 +28 душно 1015.9 1010.0
01 18.09 Ю 2 н/о н/о +28.6 +18.4 54 +33 +33 очень
душно
1017.2 1011.3 +20.4
04 18.09 С 5 н/о н/о +28.6 +18.7 55 +34 +34 очень
душно
1015.4 1009.5
07 18.09 С 4 н/о н/о +28.1 +19.3 59 +34 +34 очень
душно
1013.6 1007.8
10 18.09 СЗ 3 н/о н/о +25.0 +20.9 78 +31 +31 очень
душно
1014.3 1008.5
13 18.09 ЮЗ 3 н/о н/о +24.0 +20.3 80 +30 +30 очень
душно
1015.7 1009.8 +30.6
16 18.09 ЮЗ 3 н/о н/о +23.7 +21.6 88 +30 +30 очень
душно
1014.3 1008.5
19 18.09 ЮЗ 2 н/о н/о +22.4 +20.5 89 +29 +29 очень
душно
1013.2 1007.4
22 18.09 ЮЗ 4 н/о н/о +23.0 +18.7 77 +29 +29 очень
душно
1014.3 1008.5
01 19.09 С 3 н/о н/о +28.4 +19.3 58 +34 +34 очень
душно
1016.0 1010.1 +21.0
04 19.09 СЗ 6 н/о 1/1 600 м
[]
+28.0 +19.8 61 +34 +42 очень
душно
1013.9 1008.1
07 19.09 С 5 н/о н/о +28.6 +19.0 56 +34 +34 очень
душно
1012.2 1006.4
10 19.09 СЗ 3 н/о н/о +25.6 +19.9 71 +31 +31 очень
душно
1012.9 1007.1
13 19.09 З 3 н/о н/о +24.7 +21.4 82 +31 +31 очень
душно
1013.9 1008.1 +30.0
16 19.09 ЮЗ 3 н/о н/о +24.1 +22.4 90 +31 +31 очень
душно
1013.1 1007.3
19 19.09 ЮЗ 3 н/о н/о +23.5 +21.6 89 +30 +30 очень
душно
1012.1 1006.3
22 19.09 штиль 0 н/о н/о +20.9 +20.7 99 +26 +26 душно 1014.1 1008.3

 

Местоположение метеостанции Трускотт (Западная Австралия, Австралия): широта -14.08 долгота 126.38 высота над уровнем моря 52 м.

В архиве по умолчанию представлена погода в Трускотте за последнюю неделю. Архивные данные за месяц целиком и за предыдущие месяцы, начиная с января 2011 года, Вы можете получить, выбрав интересующий диапазон дат из раскрывающегося списка и нажав кнопку "Ввод!".


*Определитесь, кто Вы:
робот инопланетянин человек

Внимание! Время в таблицах - всемирное. Для получения местного времени необходимо прибавить поправку, которая равна 8 ч.

Смотрите также архив погоды в соседних городах и на ближайших метеорологических станциях:

Погода в Калумбуру (Западная Австралия, Австралия) (38 км)
Погода на Острове Троутон (Западная Австралия, Австралия) (44 км)
Погода в Уиндеме (Западная Австралия, Австралия) (247 км)
Погода на Острове Брауз (Западная Австралия, Австралия) (305 км)
Погода в Кунунарре (Западная Австралия, Австралия) (314 км)
Погода в Порт Китс (Северная территория, Австралия) (340 км)
Погода в Аэропорту Аргайл (Западная Австралия, Австралия) (360 км)
Погода на Острове Адель (Западная Австралия, Австралия) (382 км)
Погода на Острове Дам-ин-Мирре (Северная территория, Австралия) (461 км)
Погода в Фицрой-Кроссинге (Западная Австралия, Австралия) (464 км)

Пояснения к столбцам:

Ветер - указаны скорость ветра в м/с - средняя за 10 мин, порывы в срок и между сроками (в фигурных скобках) и направление, откуда дует ветер: С - северный, СВ - северо-восточный, В - восточный, ЮВ - юго-восточный, Ю - южный, ЮЗ - юго-западный, З - западный, СЗ - северо-западный.
Видимость - горизонтальная дальность видимости в метрах или километрах. При видимости от 1 до 10 км при отсутствии осадков обычно наблюдается дымка, при ухудшении видимости до 1 км и менее - туман. В сухую погоду видимость может ухудшаться дымом, пылью или мглою.
Явления - указаны атмосферные явления, наблюдавшиеся в срок или в последний час перед сроком; фигурными скобками обозначены явления, наблюдавшиеся между сроками (за 1-3 часа до срока); квадратными скобками обозначены град или гололедные отложения с указанием их диаметра в мм.
Облачность - указаны через наклонную черту общая и нижняя облачность в баллах и высота нижней границы облаков в метрах; квадратными скобками обозначены формы облаков: Ci - перистые, Cs - перисто-слоистые, Cc - перисто-кучевые, Ac - высококучевые, As - высокослоистые, Sc - слоисто-кучевые, Ns - слоисто-дождевые, Cu - кучевые, Cb - кучево-дождевые. Подробнее классификацию облаков см. в Атласе облаков (PDF).
T - Температура воздуха - температура, измеренная на высоте 2 м над землей.
Td - Температура точки росы - температура, при понижении до которой содержащийся в воздухе водяной пар достигнет насыщения.
f - Относительная влажность воздуха - влажноcть воздуха, измеренная на высоте 2 м над землей.
Te - Эффективная температура - температура, которую ощущает одетый по сезону человек в тени. Характеристика душности погоды. При расчете учитывается влияние влажности воздуха и скорости ветра на теплоощущения человека.
Tes - Эффективная температура на солнце - температура, которую ощущает человек, с поправкой на солнечный нагрев. Характеристика знойности погоды. Зависит от высоты солнца над горизонтом, облачности и скорости ветра. Ночью, в пасмурную погоду, а также при ветре 12 м/с и более поправка равна нулю.
P - Атмосферное давление - приведенное к уровню моря атмосферное давление.
Po - Атмосферное давление - измеренное на уровне метеостанции атмосферное давление.
Tmin - Минимальная температура - минимум температуры воздуха на высоте 2 м над землей.
Tmax - Максимальная температура - максимум температуры воздуха на высоте 2 м над землей.
R - Количество осадков - Количество выпавших осадков за период времени, мм. При наведении курсора мыши на число - период времени, за который выпало указанное количество осадков.
R24 - Количество осадков - Количество выпавших осадков за 24 часа, мм.
S - Снежный покров - Высота снежного покрова, см. При наведении курсора мыши на число - состояние снежного покрова и степень покрытия местности в баллах.